Location: Baia Mare
(47.6567°N, 23.5850°E)
Time: 14:35:14
(UTC+03:00)

ISS - Pass Details

Date: 23 July 2019
Orbit: 409 x 418 km, 51.6° (Epoch: 21 July)

Event Time Altitude Azimuth Distance (km) Brightness Sun altitude
Rises 23:11:13 0° 280° (W) 2,354 0.7 -15.3°
Reaches altitude 10° 23:13:24 10° 288° (WNW) 1,489 -0.2 -15.5°
Maximum altitude 23:16:34 39° 359° (N) 633 -2.4 -15.8°
Drops below altitude 10° 23:19:44 10° 71° (ENE) 1,484 -1.1 -16.1°
Enters shadow 23:20:21 - 74° (ENE) 1,722 -0.8 -16.2°
